Regional Weather Roundup
Issued by NWS

Home | Current Version | Previous Version | Graphics & Text | Print | Product List | Glossary On
Versions: 1 2 3 4 5 6 7 8 9 10 11 12 13 14 15 16 17 18 19 20 21 22 23 24 25 26 27 28 29 30 31 32 33 34 35 36 37 38 39 40 41 42 43 44 45 46 47 48 49 50
287
ASUS45 KBOU 270807
RWRCO

WEATHER ROUNDUP FOR COLORADO
NATIONAL WEATHER SERVICE DENVER/BOULDER CO
200 AM MDT THU JUL 27 2017

NOTE: "FAIR" INDICATES FEW OR NO CLOUDS BELOW 12000 FEET WITH NO
SIGNIFICANT WEATHER AND/OR OBSTRUCTIONS TO VISIBILITY.

COZ001>005-013-030-031-270900-
...NORTHWEST COLORADO...

CITY           SKY/WX    TMP DP  RH WIND       PRES   REMARKS
CRAIG          FAIR      57  55  93 CALM      30.30S
HAYDEN         FAIR      59  52  77 SE8       30.32F
MEEKER         FAIR      58  55  90 NE5       30.31S
RABBIT EARS PA FAIR      52  48  87 CALM      30.60F
STEAMBOAT SPGS FAIR      56  55  93 CALM      30.35F
WALDEN         FAIR      50  48  93 SE7       30.44S
$$

COZ006>008-011-270900-
...WEST CENTRAL VALLEYS...

CITY           SKY/WX    TMP DP  RH WIND       PRES   REMARKS
GRAND JUNCTION FAIR      69  58  67 NE5       30.15S
MONTROSE       FAIR      67  56  67 SE9       30.25S
EAGLE          CLOUDY    62  54  74 E5        30.34S
RIFLE          FAIR      67  58  72 E6        30.23S
DELTA          FAIR      70  58  64 E3        30.20F
NUCLA          FAIR      66  54  63 E8        30.29S
$$

COZ017>023-064>068-270900-
...SOUTHWEST COLORADO...

CITY           SKY/WX    TMP DP  RH WIND       PRES   REMARKS
DURANGO        FAIR      64  53  67 CALM      30.28S
CORTEZ         FAIR      64  57  78 E6        30.23F
PAGOSA SPRINGS FAIR      61  48  63 CALM      30.37S
TELLURIDE      FAIR      55  53  93 CALM      30.51F
WOLF CREEK PAS FAIR      50  43  76 CALM      30.75S
$$

COZ009-010-012-014-032>034-037-058>063-270900-
...CENTRAL COLORADO...

CITY           SKY/WX    TMP DP  RH WIND       PRES   REMARKS
ASPEN          FAIR      57  53  86 SW8       30.39F
BUENA VISTA    MOCLDY    59  52  77 E6        30.45S
COPPER MTN     CLOUDY    54  46  76 W6        30.72S
BERTHOUD PASS  HAZE      43  32  65 W7        30.74F VSB<1/4
COTTONWOOD PAS CLOUDY    55  52  88 E8        30.58S
GUNNISON       FAIR      57  51  80 N6        30.41R
KREMMLING      MOCLDY    61  57  88 CALM      30.41S
LEADVILLE      CLOUDY    52  49  89 CALM      30.53F
SALIDA         CLOUDY    61  55  78 E5        30.50S
SUNLIGHT       FAIR      52  45  76 CALM      30.64F
WILKERSON PASS FOG       48  46  93 CALM      30.69F VSB<1/4
$$

COZ069>075-270900-
...SAN LUIS VALLEY/SANGRE DE CRISTO MOUNTAINS...

CITY           SKY/WX    TMP DP  RH WIND       PRES   REMARKS
ALAMOSA        FAIR      59  57  93 NW5       30.37R
DEL NORTE      CLOUDY    58  49  74 W8        30.42R
LA VETA PASS   NOT AVBL
SAGUACHE         N/A    N/A N/A N/A MISG        N/A
$$

COZ035-036-038>040-270900-
...NORTHERN COLORADO FRONT RANGE...

CITY           SKY/WX    TMP DP  RH WIND       PRES   REMARKS
DENVER INTL AP MOCLDY    64  62  93 SW8       30.28F FOG
DMNS CITY PARK   N/A     63  62  95 S6        30.26F
AURORA         MOCLDY    62  62 100 SW8       30.30F
FRONT RANGE AP FAIR      64  63  94 S6        30.29F FOG
ERIE MUNI ARPT FAIR      64  62  93 S3        30.26F
BOULDER MUN AP FAIR      63  63 100 CALM      30.27S
CENTENNIAL     MOCLDY    63  61  93 SW9       30.31F
BROOMFIELD     CLOUDY    64  63  94 S5        30.30F
FORT COLLINS   MOCLDY    65  62  90 S7        30.25F
LONGMONT       FAIR      65  61  88 CALM      30.26F
$$

COZ041-046-047-076>085-087-088-270900-
...PIKES PEAK/PALMER DIVIDE AND SOUTHERN FOOTHILLS...

CITY           SKY/WX    TMP DP  RH WIND       PRES   REMARKS
COLO. SPRINGS  LGT RAIN  64  61  90 CALM      30.36F FOG
A. F. ACADEMY  LGT RAIN  61  60  99 SE3       30.35F
SCHRIEVER AFB  LGT RAIN  62  59  91 W13       30.36F
CHEYENNE MTN   RAIN      60  57  91 NW6       30.35F
ELLICOTT       RAIN     N/A N/A N/A W6        30.34S
FALCON         RAIN      59  57  94 W5        30.40F
FORT CARSON    RAIN      63  62  97 CALM      30.34S FOG
LIMON          MOCLDY    63  62  97 W10       30.27F
MONUMENT HILL  FAIR      55  54  94 S7        30.40S
CANON CITY     DRIZZLE   63  63 100 SE5       30.33R
WALSENBURG     CLOUDY    66  63  88 N13       30.35S
TRINIDAD       CLOUDY    67  61  81 NW6       30.32R
$$

COZ042>045-048>051-090-091-270900-
...NORTHEAST COLORADO...

CITY           SKY/WX    TMP DP  RH WIND       PRES   REMARKS
GREELEY ARPT   FAIR      67  64  90 SW6       30.24F
AKRON          FAIR      66  62  87 SE5       30.24S
BURLINGTON     CLOUDY    70  66  87 N5        30.20S
WRAY           NOT AVBL
YUMA           FAIR      64  57  77 CALM      30.21S
STERLING       FAIR      68  64  88 CALM      30.20S
HOLYOKE        FAIR      64  63  94 CALM      30.20R
FORT MORGAN    CLOUDY    66  63  88 NE3       30.23F
$$

COZ086-089-092>099-270900-
...SOUTHEAST COLORADO...

CITY           SKY/WX    TMP DP  RH WIND       PRES   REMARKS
PUEBLO         RAIN      64  61  90 NW16      30.28R FOG
LA JUNTA       CLOUDY    72  69  90 SE6       30.22R
LAMAR          FAIR      71  69  93 S3        30.17R
SPRINGFIELD      N/A     64  64 100 N8        30.20S
$$




USA.gov is the U.S. government's official web portal to all federal, state and local government web resources and services.